User: anonymous   Login
Location: Unspecified
(0.0000°N, 0.0000°E)
Time: 20:25:31
(UTC+00:00)
Language:

STARLINK-33553 - Orbit

View from above orbital plane
View from above orbital plane
View from above satellite
View from above satellite

Ground track
Ground track

The orbit is defined by the following mean orbital elements,

1 62108U          26145.40286091 +.00000000 +00000-0 +26499-3 0 00001
2 62108  43.0006 132.2949 0001119 269.0892  90.9831 15.27589147    09
Epoch (UTC): 25 May 2026 09:40:07
Eccentricity: 0.0001119
inclination: 43.0006°
perigee height: 482 km
apogee height: 484 km
right ascension of ascending node: 132.2949°
argument of perigee: 269.0892°
revolutions per day: 15.27589147
mean anomaly at epoch: 90.9831°

The dashed part of the orbit path shows where the satellite is in the earth's shadow,  

DLR